User: anonymous
Location: Drayton Valley
(53.2170°N, 114.9830°W)
Time: 20:18:14
(UTC-06:00)
Language:

MOZ.5/SAFIR/RUBIN 5/SL-8 - Orbit

View from above orbital plane
View from above orbital plane
View from above satellite
View from above satellite

Ground track
Ground track

The orbit data is extracted from the following two-line orbital elements,

1 28898U 05043G   14245.62959440  .00000268  00000-0  65478-4 0  9060
2 28898 097.8370 070.9259 0021063 149.6019 253.2978 14.59523600471222
Epoch (UTC): 02 September 2014 15:06:36
Eccentricity: 0.0021063
inclination: 97.8370°
perigee height: 680 km
apogee height: 709 km
right ascension of ascending node: 70.9259°
argument of perigee: 149.6019°
revolutions per day: 14.59523600
mean anomaly at epoch: 253.2978°
orbit number at epoch: 47122

The dashed part of the orbit path shows where the satellite is in the earth's shadow,  

DLR